Ping Pong Board
บอร์ด: คนไทยเก่งปิงปอง
บอร์ด: การแข่งขันทั่วไทย
บอร์ด: พูดคุยทั่วไป-สินค้ามือ 2
บอร์ด: สินค้ามือสอง On FB
บอร์ด: แปลงสินทรัพย์เป็นทุน
บอร์ด: ขายสินค้าใหม่ มือ 1
บอร์ด: รีวิวอุปกรณ์
บอร์ด : รีวิวอุปกรณ์ On FB
บอร์ด: เทคนิคการเล่นปิงปอง
บอร์ด: การเมืองเรื่องปิงปอง
บอร์ด: บริจาคอุปกรณ์เหลือใช้
บอร์ด: ปรึกษาอาการบาดเจ็บ
บอร์ด: ปิงปองทุกจังหวัด
บอร์ด: ชมรมคนเล่นยางเม็ด
บอร์ด: จับแบบไม้จีน ไม้ญี่ปุ่น
บอร์ด: สนทนาภาษาปิงปอง
บอร์ด: นัดกันไปเรียน ไปเล่น
บอร์ด: Chat Online
บอร์ด: เล่นเกมส์ปิงปอง
บอร์ด: เกมส์ออนไลน์
สำหรับสมาชิก
นามปากกา
รหัสผ่าน
ลืมรหัสผ่าน
สมัครสมาชิกใช้งาน
กระทู้โดนใจชาวปิงปอง
สถานที่รับสอนปิงปอง
บอร์ดซื้อขายสินค้ามือสอง และพูดคุยแลกเปลี่ยนความคิดเห็นกัน
ตั้งกระทู้-เฉพาะกีฬาปิงปอง
ค้นหาข้อมูล :
ค้นหาจาก :
@เรื่อง.........FromAnswer-ReaderLast Answer
ใครมีไม้ Palio T3 ขายให้ผมเถอะครับ เหยี่ยว1/75119/10/2553 1:21:52
**ขออนุญาตขายไม้Donic+05+64ยกชุด2,500รวมส่งครับ Surakob21/114318/10/2553 19:52:48
ขออนุญาตขายไม้ darker 7p-2a ด้าม st พร้อมยาง yasaka mark v 2 ด้าน tonado6/115718/10/2553 17:44:41
ช่วยรีวิวsardias กับ schlager light ด่วน cnmty6/141418/10/2553 16:28:36
ขายdonic burn offหรือเเลกครับ pongha9/129518/10/2553 15:21:02
ขายdonic+tg05+tg64ราคา2000บาทครับ cnmty8/190518/10/2553 15:19:55
มีใครสนใน sony walkman ไหมคับ พลร่ม 10139/109618/10/2553 15:18:03
หน้าไม้แตกเป็นเสี้ยน เกิดจากกาวหรือเปล่า...?????? พันจุ่น5/99918/10/2553 14:47:15
รับยางเม็ดยาว Grass D Tacs หลังม่านพิรุณ6/77818/10/2553 13:30:37
ความผิดพลาดของเซี่ยงไฮ around13/166618/10/2553 13:04:38
ขายไม้ Andro Kinetic CF OFF , ยาง PRYDE 40 ถูกๆ momokung30/147818/10/2553 10:16:02
ไม่เกี่ยวกับปิงปองครับ...แต่อยากขาย...แหะๆ Nai198015/116418/10/2553 8:47:29
ขายยาง BUTTERFLY FLEXTRA HARD 2.1 สีดำ satanapat_amp14/166718/10/2553 8:14:45
รับ Primorac ST maze25/119918/10/2553 7:35:55
มีไม้มาขอแลกครับ Bobbie7/100318/10/2553 7:33:27
ขายไม้ Butterfly HINOKI SHAKE 7 สภาพใหม่มากๆ 96% goodman11/231618/10/2553 7:17:38
ขาย TENERGY 05 แดง และJOOLA แดง loma17/139117/10/2553 23:32:22
ขายยางใหม่สี่เหลี่ยมถูกๆ Hidden Dragon Biotech และ andro QUAD 480, goodman5/90917/10/2553 22:31:50
โปรแกรมแข่ง PEA2010 id320/78617/10/2553 21:19:37
ต้องการยาง baracuda สีดำ max มิตรภาพ6/84917/10/2553 21:06:51
ถามเกี่ยวกับไม้ xiom ตัวใหม่ๆ clound3/89717/10/2553 20:39:52
หาเพื่อนตี ปอง พระราม 7 ช่วงวันธรรมดา ได้ทั่งวัน momokung18/124917/10/2553 19:40:55
มีใครรู้จักพี่ป๊อก สมพงษ์ ตามเพ็ชรเติม ใบบุญ1/104617/10/2553 18:59:17
ขายเสื้อปิงปอง nittaku สวยๆ 3 ตัวครับ มิสเตอร์บอส13/105717/10/2553 16:56:01
รบกวนรีวิวยาง KOKUTAKU 868 TOKYO NON TACKY parinya1/125817/10/2553 15:03:16
ขายยางYASAKA " MARK V " GPS มือ1 ถูกมากๆครับ มือ22212/113617/10/2553 13:39:23
ขายยาง Nittaku Renanos 2 แผ่น ดำ - แดง Robbie26/145317/10/2553 11:19:39
เรื่องยาง แซ็ค0/65317/10/2553 11:08:13
((ขาย))Tackifire-D 1.9 หลังม่านพิรุณ22/101517/10/2553 6:49:08
มีใครจะขายยางบ้างไหม ต้องการแดงดำด่วนมากคับ ptt.8/92117/10/2553 0:38:47
ขายยาง Air Illumina x25,x30,x88,x90 ตำ, x77แดง bigben14/122116/10/2553 23:55:31
เดือนนี้ครบรอบสามปี ซีดีลูกเสริฟ ให้หวยสักหน่อย สามตัวตรงๆ นักปิงปองจะได้มีตังใช้ท่างลัดเหมือนลูกเสริฟผม ราชาตะวันออก6/114516/10/2553 23:53:17
ขายยาง Palio Blitz สีดำ Maxครับ หมูกรอบ15/238416/10/2553 23:30:09
SHOCK!สนั่นเมือง! ขายรองเท้าMIZUNOและNIKEราคาโดนใจ มือ22230/194416/10/2553 22:32:44
ขายViolin bueipong44/184616/10/2553 22:14:06
หาคนดูแลgergelyครับ wut00729/156416/10/2553 22:10:43
สมัครด่วน วิภาวดีคัพ แข่งขัน 16 - 17 ตุลาคม 2553 ณ โรงเรียนปากเกร็ด admin2/122616/10/2553 22:08:09
ขออนุญาติขายไม้ hallmark cobination utra ครับ เซโรงัง19/105116/10/2553 20:45:48
ยาง Tibhar รุ่นไหนน่าตีบ้างครับ Zigzag0/69516/10/2553 19:26:55
มีไม้มาขอแลก Bobbie13/129616/10/2553 18:55:53
รับซื้อไม้ NITTAKU VIOLIN - FL bhabho4/92516/10/2553 18:47:27
ปิงปองดูกันเล่นๆ นะค่ะ นู๋เปิ้ล0/82616/10/2553 12:33:53
ขายไม้BUTTERFLYรุ่น SCHLAGER PRECISION กับ ยาง TG05 แดง rocktor35/159516/10/2553 11:40:52
ขายไม้ butterfly taksim cs ตูดผีเสื้อ sponge16/129916/10/2553 11:31:13
ยางมือสองคุณภาพมือหนึ่งมาอีกแล้วครับ!!! bueipong21/149716/10/2553 10:45:34
ขาย BTY Aluminum Case สภาพใหม่ไม่เคยใช้ Teesui1/80816/10/2553 1:27:27
รับโต๊ะปิงปองสภาพดีหรือแนะนำซื้อที่งานแข่งให้หน่อยครับ Teesui5/91516/10/2553 1:24:56
ช่วยด้วยคับtri cabon แปะกาวไม่อยุ่ pttp7/75616/10/2553 0:44:22
ถึงคุณวรินทรและคุณสุชาตฺขอครับ ส่งของให้แล้วขอครับ มือ2221/63715/10/2553 22:35:53
รับยางที่ไม่ต้องทากาวบ่อย+จ๊อกด้วยยิ่งดีเลยคับ Notorious3/84615/10/2553 22:28:57
!!!-ขาย DHS herricane 2-!!! DoMiTa406/92515/10/2553 22:19:11
รับยาง Quad 420 / 450 ครับ Zigzag0/61115/10/2553 22:14:28
ปล่อย Kong Ling Hui Special ST (ตูดเงิน) ครับ เอ๋ BL38/214115/10/2553 21:51:35
UPDATE?!?! .....สถานที่เล่นต่างๆทั่วประเทศ.... เรียวม่า52/311715/10/2553 21:34:17
ขาย Clipper CR มือ 2 ตามรูปครับ plapliga6/100215/10/2553 20:38:04
รับซื้อไม้ Nittaku SURVELIAN (Carbon) ด้าม FL ครับ feel13/146915/10/2553 20:25:02
ข่าวล่าสุด!!!ตอนนี้ Waldner-Persson เปิดผับปิงปองอยู่ที่ประเทศจีน ใครอยากรู้ว่าแสดงอะไรลองชมครับ จาก สรยุทธ ฮ่าๆ สรยุทธ1/116315/10/2553 19:58:32
ช่วยเลือกยางหมุนๆให้ผมหน่อยครับ..มีตัวเลือกครับ spinder6/113015/10/2553 19:57:25
To พี่เพอสัน ครับ yodpich0/58215/10/2553 17:40:13
ลองขายดู sardius มือ 1 ครับ clound12/181715/10/2553 17:30:06
ขาย ครับ sbttc69/248215/10/2553 17:13:30
เค้ากำลังทำอะไร?? Kapi2/86215/10/2553 17:04:15
การแบนกาว clound9/125715/10/2553 16:24:59
มีไม้อยากเเลกกับ w.schlager fl หรือkeyshot light fl asdf5/102715/10/2553 16:13:41
((รบกวนนอกเรื่องหน่อยครับ)) ค่าโทรศัพท์จากเบอร์บ้านไปเบอร์บ้าน คิดราคายังไงครับ WangLiqin3/74015/10/2553 16:03:39
ขายรองเท้า yasaka yma 501ใหม่ 43 กับไม้มือสองสภาพดีครับ sponge42/207415/10/2553 15:44:32
ขายต่อ TG 05 ฟองน้ำ 2.1 หน้าไม้ Gergely (850 พร้อมส่ง) เอ๋ BL10/107815/10/2553 15:35:40
ขายยาง BTY Sriver G3 ดำ-แดง ฟองน้ำ 2.1 ม.ม.สภาพดี หมิน.19/138915/10/2553 14:22:49
ขายยาง ยาซาก้า Timo Back7/111715/10/2553 14:05:54
ขายไม้ยกชุด หมุน คอนโทรล ดีครับ เพอสัน53/221515/10/2553 13:33:55
ขายเสื้อเเละกางเกง nok12316/126415/10/2553 12:31:26
รับยาง ButterFly G3 แดง-ดำ As1233/73615/10/2553 12:15:59
ตอนนี้12.00 ช่องespn (true 106) กำลังฉายปิงปองรอบชิงทีมชายของยุโรป Replay0/120115/10/2553 12:13:57
ตามหา Palio toeside bueipong0/61115/10/2553 11:23:59
<--[ขายเสื้อ Nittaku Butterfly มือสอง มีแค่ 3 ตัวครับ]--> darkzero11/111315/10/2553 11:00:43
Key Shot Light ให้น้องชม8iy[ เอ๋ BL21/140015/10/2553 10:43:30
ถึงคุณพายุอยากซื้อรองเท้าสักหน่อย juneonion0812/69415/10/2553 7:57:21
เปิดสอนปิงปอง พร้อมให้เช่าโต๊ะปิงปอง อยู่เทพารักษ์ สำโรง mono108/603315/10/2553 1:01:11
มาแล้วเสื้องามแบบเทพๆ ขายตัวละ 280 2ตัว 500 ไม่สวยคืนได้ mono47/163915/10/2553 0:48:51
รับ hallmark cobination utra druminw0/63515/10/2553 0:05:35
ขายยาง optimum mp สีแดง +ยางdonic joplattin ถูกๆ จั๊กจี้7/104314/10/2553 23:31:13
ยางราคาลด 80 เปอร์เซ็นต์ที่เซี่ยงไฮ้ส์ รุ่นใหนน่าใช้ มีตารางรุ่นให้ดูด้วย tee-noy4/109414/10/2553 22:34:40
ขายTenergy 64 แดงสภาพ 90% yodpich12/101114/10/2553 22:27:06
ซ่อมด้ามไม้ปิงปอง ไม้ปิงปอง2/96914/10/2553 22:00:27
มีใครอยากได้ไม้ andro บ้างไหม พลร่ม 101323/112214/10/2553 21:55:16
vdo clip เวบลีก tee-noy0/78814/10/2553 20:49:07
ขายยาง2แผ่นFUSION ดำ แดง juneonion08132/123314/10/2553 20:06:25
ขอแลกไม้ครับ tenergy11/92714/10/2553 19:55:32
ขายครับไม้ยกชุด Nai198027/159814/10/2553 18:49:10
ใครรับทำไม้ปิงปองบ้างคับ lycaon3/98214/10/2553 18:38:53
รีวิว schlager ให้หน่อยครับ pongha1/86314/10/2553 17:31:07
ตามหา sword king ser90 มือ2 ราคาย่อมเยาครับ costheta32/119814/10/2553 13:18:40
ขายยาง note3/87814/10/2553 13:02:01
คุณคิดอย่างไรเกี่ยวกับวงการปิงปองไทย 555+41/228714/10/2553 12:37:10
ขายไม้ nittaku latika fl ครับ clound12/202514/10/2553 11:55:27
ใครเคยใช้ Innerforce ALC บ้าง RayBan5/167614/10/2553 11:29:36
ขาย ไม้ XIOM STRADIVARIUS พร้อมยาง ถูก ครับ ตามสภาพเลยะนะครับ maze31/158414/10/2553 9:07:13
..ทำยังไงถึงจะฟุตเวริคเร็วๆ ขอแบบหายตัวได้เลยนะ.. foot4/97414/10/2553 8:55:24
ถึงคุณหลินครับ tenergy7/88214/10/2553 8:45:23
ทีมเอเชีย ปะทะ ทีมยุโรป TKMP11/118614/10/2553 7:57:23
รับ tg 05 แดงครับ ลินดาแมน5/67114/10/2553 7:40:26
รับยางราคาถูกๆ เพอสัน33/182014/10/2553 0:47:10
ไม้ปิงปองที่มีชั้นมากที่สุด weemath16/164614/10/2553 0:06:56
ใครเคยตี DHS Memo 3 บ้าง ? Notorious2/104513/10/2553 23:34:49
รบกวนถามเรื่องร้านขายไม้ปิงปองใน สิงคโปร์ packkie565/137013/10/2553 23:32:38
รับยาง Plasma / Roxon / Omega4 Pro ครับ Zigzag6/84513/10/2553 22:48:02
ฟองน้ำพรุน ดีจริงไหม??? clound11/172713/10/2553 22:46:07
ขายยาง stiga optimum mp ดำ สภาพ 99 % กิ๊กๆ spinder9/129013/10/2553 22:31:23
ขายยางปิงปอง Butterfly 3 แผ่น ( Bryce แดง 2 แผ่น, Super Sriver ดำ1 แผ่น) สภาพตามรูปครับ capsule_0077/167713/10/2553 17:27:04
รับซื้อยางสไตล์บุก mark147943/73713/10/2553 16:37:07
พาอดีตสาวห้างมาให้รู้จัก!!!!! นาธาน โอโม่32/164113/10/2553 15:10:45
รับยางมือ1/2 95 เปอ คร่า ใบบุญ8/81913/10/2553 12:51:55
ขายยาง ANDRO HEXER kom_cha2/90413/10/2553 12:48:57
<<<รับ>>>ด่วน!!!!ยางยาซาก้า เอ๊กซ์เทรน เฮชเอส หรือ ฟิวชั่นสีดำ/แดง2แผ่น ขอสภาพ90%ขึ้นไป ราคาไม่เกี่ยง ขอรูปและเบอร์ติดต่อไว้ จะโทรกลับเองค่ะ... ใบบุญ13/104513/10/2553 12:45:29
ใครพอจะมียางรับ (ยางเรียบ) สีีแดงปล่อยบ้างครับ (ฟองน้ำมันจะบางๆ) mintwing79/87513/10/2553 12:43:21
Tennergy05 -64 เฟริส_tlec9/88213/10/2553 12:33:46
รับ andro plasma ตัวนิ่น เฟริส_tlec1/72713/10/2553 12:32:16
รับไม้ stiga hybrid wood st เอ็ม5/74413/10/2553 11:37:05
ขายยาง grip s icu_x_0/78013/10/2553 11:22:46
อยากแลกกับ ไม้ชรา ตูดผีเสื้อครับ พรพจน์32/173613/10/2553 11:22:03
คำถามเกี่ยวกับ วิทยาลัยพลศึกษา สมุทรสาคร ช้าง0/94913/10/2553 11:10:42
ขายยางเม็ดสั้นบุกDHS 652 รวมส่ง แค่ 120 ถูก ครับ สีแดง ด่วนคับผม maze10/103113/10/2553 10:36:14
ขายไม้ HERMOSO LIGHT ด้าม ST คับ ตูดผีเสื้อ พลร่ม 101346/155413/10/2553 8:51:00
ไม้ซาเดียส รุ่นสาม สภาพดี น่าจะขายได้เท่าไหร่ึีครับ clound7/85113/10/2553 7:31:45
sale อุปกรณ์มือ 1 และ มือ 2 ครับ (ฃ่วงนี้ไม่ค่อยได้เล่น) ton2226/145813/10/2553 6:38:01
ขายยาง(อาวุธหนักราคาไม่หนัก) เด็กดี3/120113/10/2553 1:33:57
ขายไม้ครับ tenergy6/103313/10/2553 1:31:12
ขายยาง Juic Nano Canon สีแดง หมูกรอบ7/98512/10/2553 23:46:24
รับซื้อไม้เปล่าสไตล์บุกกับยาง mark147945/84212/10/2553 23:43:32
ไปเอกวาดอร์ เสร็จไปชิลี ต่อสมาคมเงินเยอะจริง ๆ bbbza28/170212/10/2553 23:01:53
ขายยางPRYDE40แดงเหมือนใหม่ juneonion08142/156812/10/2553 22:43:34
โปรแกรมการแข่งขันเทเบิลเทนนิส วิภาวดีคัพ 16 - 17 ต.ค. 53 friendship7290/84212/10/2553 22:21:33
โปรแกรมแข่ง ปากเกร็ด แอบดู0/63312/10/2553 22:07:44
ขายไม้BTF BIRIBA 100%ครับ wut0076/92712/10/2553 22:06:34
ขายไม้ BTY KORBEL SPEED FL สภาพ 90%ขึ้นไป T.Bankz6/94012/10/2553 21:49:21
(((( รับ )))) ยาง ANDRO REVOLUTION COR2หรือCOR2 EMOTION สีแดงครับ nobutakajung43/136912/10/2553 21:34:04
รับไม้ปิงปองด้ามตรง Off+ ถึง Off ราคาไม่แพงคับ Notorious2/77512/10/2553 21:17:01
ขายไม้ Gergely 21 FL ครับ kingleten15/117412/10/2553 21:11:58
ขายไม้ andro พลร่ม 101320/124612/10/2553 20:25:22
ขายไม้But. 1200 บาท ตูดผีเสื้อค่ะ ใบบุญ9/106012/10/2553 19:43:50
((รับ))ไม้BUT.GEGERLY / GEGERLY21/KEYSHOT LIGHT สภาพดี ราคาเท่าไหร่ว่ามา ใบบุญ11/105912/10/2553 19:33:05
<<รับ>>ไม้But.Timo Boll St/Flราคาเท่าไหร่ว่ามาค่ะ ขอสภาพสวยหน่อยนะค่ะ คนข้างหลัง2/68912/10/2553 19:31:47
N85 แลกไม้อะไรได้บ้างครับ As12341/175112/10/2553 19:29:57
รับยางเรียบสไตร์รับฟองน้ำบาง 1.5-1.8 สีแดง (ยางจีน-ญี่ปุ่น) mintwing71/70612/10/2553 18:46:07
ผมมาตามหาไม้ปิงปองอันหนึ่ง Timo Back14/114612/10/2553 18:22:23
ถึงคุณ ananinii mangmum0/70012/10/2553 17:59:17
ติดต่อด่วน เมื่อวันอาทิตย์ ท่านใดสอบถามผมเรื่อง Sword King Ser-90 ครับ เอ๋ BL6/106712/10/2553 17:58:05
ขายยาง SRIVER สีแดง ตี1 ชม. ใหม่มากๆๆๆๆ Timo Back27/140712/10/2553 16:23:33
รับไม้ iolite หรือ iolite neo มือสองสภาพดีครับ boyz23/155112/10/2553 16:20:01
ขายยาง สภาพดี ราคาถูก yoona7/101612/10/2553 15:44:34
ขายไม้ BOLL TRICARBON ด้ามST มือ2เหมือนใหม่สภาพ95% แถมยาง1แผ่น ราคา1000บาท พร้อมส่ง yoona12/106212/10/2553 15:42:06
[font:red] ช๊อตวงการ [/font]! ขายไม้ ACOUSTIC ด้ามFL มือ1ของใหม่ แถมยาง1แผ่น yoona17/121412/10/2553 15:40:51
ขายไม้ But peter Kobel FL สภาพดีครับ kingleten7/111312/10/2553 15:37:52
ขายไม้ Donic Burn Off Fl สภาพ99% ครับ kingleten10/149012/10/2553 15:37:07
ขายเครื่อง xbox คับ พลร่ม 101322/98212/10/2553 13:59:43
ขายยาง TG64 สีแดง 2.1 มือสอง ครับ Nevery4/90012/10/2553 13:35:07
TiMo Boll ALC พร้อมยาง แดง-ดำแลกJUN มือสองครับ nuishiki14/122212/10/2553 12:39:24
แจกเสื้อ But กับ Nit อย่างละหนึ่งตัว...ฟรีครับ Sekson32/135912/10/2553 11:26:58
ม.ธนบุรีคัพ ครั้งที่ 2 วันที่ 16.17 ตุลาคม 2553 druminw11/216012/10/2553 11:22:25
นู๋เปิ้ลตามหาคนค่ะ นู๋เปิ้ล3/92712/10/2553 11:11:03
ขาย Timo spirit FL dandc29/193812/10/2553 9:54:38
ช่วยระบายของหน่อย!!! นาธาน โอโม่15/131312/10/2553 9:45:12
Butterfly Crabo X5 nopoffshore 6/82612/10/2553 7:40:12
ขายเสื้อButterflyสวยเทพๆ ราคา390บาทเท่านั้น มีเฉพาะเบอ์M (5ต.ค) สรยุทธ6/72311/10/2553 21:20:54
ขอขายรองเท้าวิ่ง Mizuno คับ พลร่ม 10137/187311/10/2553 21:03:38
ขาย gergely และ gergely 21 tawan17/160411/10/2553 20:44:22
อยากได้ RETURN BOARD ครับ คายมีแล้วเบื่อแล้วบ้าง momokung3/103611/10/2553 20:35:51
รับ ยาง tg งับ เฟริส_tlec2/58511/10/2553 20:07:25
รับซื้อโต๊ะปิงปองมือสอง รายละเอียดด้านใน Ctrl5/184511/10/2553 19:42:06
รับซื้อไม้ Nittaku SURVELIAN (Carbon) ด้าม FL ครับ อยุ่เเถวนนทบุรีครับ feel1/64611/10/2553 17:48:57
ขาย เด็กดี22/166211/10/2553 17:15:19
IRPC CUP 2010 จัดแข่งเดือนธันวาคม(กำลังหาฤกษ์จัด) - -" IRPCRY4/130911/10/2553 14:09:56
>>แชร์ประสบการณ์ เพื่อนๆเคยบาดเจ็บอย่างไรบ้าง เนื่องจากการเล่นปิงปอง<< bonmat11/93111/10/2553 13:45:31
Koji Matsushita ไปเป็นประธาน TSP แล้ว waros3/107711/10/2553 13:43:59
ประมูลไม้บัตเตอร์ฟลายไม้ธรรมชาติตูดผีเสื้อ เริ่มต้นที่1090บ. ปิดประมูล10.10.53 เวลา 20.00น. ใบบุญ18/129311/10/2553 13:37:40
ถึงคุณ... :รักลูกปิงปอง และนพ. ณรงค์ มือ2222/72111/10/2553 12:18:44
ขาย Butterfly ISHLION +ยาง byte(แดง)+yasaka(ดำ) 3600 poonsak45/205111/10/2553 11:51:39
amultart fl + junmizutani fl มือ 1 aucefiro16/204511/10/2553 11:45:21
รับไม้ Timo boll spirit และ Schlager carbon ด้าม ST ครับ Fly horse1/80311/10/2553 11:40:09
_________แลกไม้ Nittaku Ludeack power [b] ST [/b] แลกกับ ด้าม FL________________ jabJAB36/117311/10/2553 10:55:08
ขายไม้ JOOLA CHEN WEI XING + ยาง Drum + เม็ดยาว Octopus จรวดสปิน5/103511/10/2553 9:54:23
ถึง พี่เจี๊ยบ herpes jabJAB2/82011/10/2553 9:42:34
ถึงพี่ไปร์ GetZii>>0/60611/10/2553 8:40:56
@ น้องที่จะซื้อไม้ คีช็อตไร้คัฟ TYT.G/W11/95511/10/2553 7:29:28
เทคโนโลยีใหม่ Temper Tech กับ CS7 Multi-Play ? Zigzag4/85611/10/2553 1:23:06
ถึงคุณ yeen นะครับ ปิงปองโคราช2/71111/10/2553 1:14:16
ขายยางปิงปองกับไม้ครับ mark1479414/124610/10/2553 22:24:41
ช่วยกันโพสรูปไม้เก่าๆแรงๆให้หน่อยครับ satit.20100/65310/10/2553 22:00:24
อยากได้เสื้อyasaka CAKE0/64910/10/2553 21:45:35
ขายไม้ MIZUTANI JUN FL big246/123110/10/2553 21:41:51
ถ้าใครมี Twitter ตอนนี้สามารถติดต่อกันกับผมได้แล้วนะครับ Pimple Lover0/64510/10/2553 21:28:13
รับยางเม็ดสั้นรุกของ DHS 652 สีดำ แผ่นเหลี่ยมครับ ใครมีเสนอราคามาเลยครับ maze2/75310/10/2553 21:23:57
รับไม้ Butt oh sang eun ด้ามตรงคับ Notorious0/63910/10/2553 21:01:24
รีวิวยางดีๆให้ด้วยครับ satit.20109/93410/10/2553 20:52:59
รับไม้ Schlager Inspire-St ครับ Zigzag1/88510/10/2553 19:55:18
รับยางด้านแดง หน้าไม้อมูตาด วันนี้ ด่วนครับ momokung9/86810/10/2553 19:10:57
ขาย ยาง DHS NEO SKYLINE 3 มือ 1 แผ่นเหลี่ยม ครับ maze5/99810/10/2553 16:12:49
รัับยางDHS SKYLINE III ฟองน้ำ #21 bluespong สีดำ champy7/125010/10/2553 16:12:04
สปิริต น้ำใจนักกีฬาของ Wang Liqin Pimple Lover17/343810/10/2553 15:25:13
ขาย YASAKA 3D Max Carbon hs9eku17/130410/10/2553 14:20:11
Page :  1  2  3  4  5  6  7  8  9  10  11  12  13  14  15  16  17  18  19  20  21  22  23  24  25  26  27  28  29  30  31  32  33  34  35  36  37  38  39  40  41  42  43  44  45  46  47  48  49  50  51  52  53  54  55  56  57  58  59  60  61  62  63  64  65  66  67  68  69  70  71  72  73  74  75  76  77  78  79  80  81  82  83  84  85  86  87  88  89  90  91  92  93  94  95  96  97  98  99  100  101  102  103  104  105  106  107  108  109  110  111  112  113  114  115  116  117  118  119  120  121  122  123  124  125  126  127  128  129  130  131  132  133  134  135  136  137  138  139  140  141  142  143  144  145  146  147  148  149  150  151  152  153  154  155  156  157  158  159  160  161  162  163  164  165  166  167  168  169  170  171  172  173  174  175  176  177  178  179  180  181  182  183  184  185  186  187  188  189  190  191  192  193  194  195  196  197  198  199  200  201 
[ First ] [<< back ] [ next>> ] [ Last ]  
VIP SPONSOR

 

ห้ามอย่านำสินค้าหนีภาษี - สินค้าหิ้วเข้ามาเอง - สินค้าปลอม มาจำหน่ายในเวปนี้
 
© 2020 All Rights Reserved
Powered by
ThaiWebWizard.com